THOR ABLESTAR DEB, 403

Orbit data source: Space-Track

THOR ABLESTAR DEB, 403 is space debris in LEO originally from a launch on Thu, 29 Jun 1961 UTC launched from the Air Force Eastern Test Range (AFETR). Debris objects in space refer to the collection of defunct objects orbiting the Earth. Examples of debris include non-operational satellites, rocket bodies, and fragments generated from explosions, collisions, or faulty payload assembly.

Loading next visibility...
THOR ABLESTAR DEB details
Identifier
403, 1961-015EC
Orbit
LEO
Last TLE update21 hours ago
Origin
Flag of USUSAF SSD (US)
ManufacturerUnknown
MissionSpacecraft
Bus & MotorUnknown
MassUnknown
Launch date (UTC)
1961-06-29 (64 years ago)
Launch vehicleUnknown
Launch site
Air Force Eastern Test Range (AFETR)
Object type
Payload
Rocket body
Debris
Shape & HBRUnknown
Radar Cross SectionSmall (<0.1 m²)

Expand to show TLE details & history

TLE from 21 hours ago
0 THOR ABLESTAR DEB
1 00403U 61015EC  25039.73366791  .00000104  00000-0  16838-3 0  9995
2 00403  66.8418  29.5925 0019858 178.7532 354.2802 13.81117887203002
Epoch: 2025-02-08T17:36Z
Definitive object data (Epoch: 2025-02-08T17:36:28.907Z)
Latitude6.36298°
Longitude163.67506°
Altitude946.893 km
Speed7.386 km/s
True Right ascension13h 47m 29s
True Declination6° 19' 34"
Sunlit
Object was in daylight at TLE epoch
Visualization TLE readout
Latitude-58.10133°
Longitude-152.59406°
Altitude976.324 km
Speed7.366 km/s
Apparent Right ascension06h 41m 42s
Apparent Declination-83° 47' 02"
Sunlit
Object is in daylight
Visualization observer readout
Local Sidereal Time17:08:33
Azimuth183.506° SSW
Elevation-45.576°
Doppler factor1
Orbital elements
Apogee altitude972.889 km
Perigee altitude943.752 km
Semi-major axis7,336.458 km
Eccentricity0.0019858
Inclination66.8418°
RAAN29.5925°
Arg. of periapsis178.7532°
True anomaly354.25746°
Mean anomaly354.2802°
Eccentric anomaly354.26884°
Mean motion3.45393 °/min
BSTAR0.00016838
Orbital period104.23 mins
Loading maneuver chart data...

THOR ABLESTAR DEB Visibility forecast

Observer location: undefined°, undefined

Span
Click to sort rows by Start time (UTC) header in descending order
Start Az.
Max El. time (UTC)
Max El. Az.
Max El.
End time (UTC)
End Az.
11 mins2025-02-10 00:10:13.813Z184.487° SSW2025-02-10 00:15:13.813Z119.338° SE38.224°2025-02-10 00:21:13.813Z39.189° NE
9 mins2025-02-10 01:59:13.813Z263.351° W2025-02-10 02:03:13.813Z316.947° NNW26.049°2025-02-10 02:08:13.813Z10.458° NNE
10 mins2025-02-10 09:18:13.813Z342.751° N2025-02-10 09:23:13.813Z58.388° ENE38.786°2025-02-10 09:28:13.813Z130.237° SE
8 mins2025-02-10 11:06:13.813Z298.17° NW2025-02-10 11:10:13.813Z249.504° W22.77°2025-02-10 11:14:13.813Z205.02° SW
|